[[{"header":{"parameterUnit":"m.s-1","parameterCategory":2,"la1":30.2991,"la2":30.254,"lo1":-89.0895,"lo2":-89.0444,"dy":0.0017,"dx":0.0017,"nx":28,"ny":28,"refTime":"2025-04-14T21:00:00:Z","depth":"0","parameterNumber":2,"parameterNumberName":"U-component_of_CURRENTS"},"data":[0,0,0,0,0,0,0,0,0,0,0,0,0,0,0,0,0,0,0,0,0,0,0,0,0,0,0,0,0,0,0,0,0,0,0,0,0,0,0,0,0,0,0,0,0,0,0,0,0,0,0,0,0,0,0,0,0,0,-0.2771,-0.2772,0,-0.2835,-0.2836,-0.2837,-0.2836,-0.2835,-0.2834,-0.2834,-0.3078,-0.3085,-0.3092,0,0,0,0,0,0,0,0,0,0,0,0,0,-0.2663,-0.2665,-0.2771,-0.2772,-0.2773,-0.2835,-0.2836,-0.2837,-0.2836,-0.2835,-0.2834,-0.2833,-0.3076,-0.3084,-0.3093,0,0,0,0,0,0,0,0,0,0,0,0,0,-0.2715,-0.2665,-0.2771,-0.2781,-0.2783,-0.2835,-0.2836,-0.2837,-0.2836,-0.2835,-0.2834,-0.2833,-0.3073,-0.3083,-0.3094,-0.318,0,0,-0.3127,-0.3131,0,0,0,0,0,0,0,0,-0.2712,-0.2719,-0.2779,-0.2781,-0.2783,-0.2828,-0.2887,-0.2961,-0.2836,-0.2814,-0.2834,-0.2833,-0.3013,-0.3029,-0.3038,-0.3192,-0.3202,-0.3128,-0.3134,-0.3139,-0.3142,0,0,0,0,0,0,0,-0.2708,-0.2716,-0.2794,-0.278,-0.2783,-0.2789,-0.2794,-0.2901,-0.292,-0.2816,-0.2816,-0.2827,-0.3015,-0.3027,-0.3044,-0.3206,-0.3127,-0.3137,-0.3143,-0.3148,-0.3319,-0.3318,0,0,0,0,0,0,-0.2705,-0.2713,-0.2792,-0.2797,-0.2746,-0.2791,-0.2798,-0.2813,-0.2915,-0.2929,-0.2828,-0.2827,-0.3009,-0.3032,-0.3053,-0.3062,-0.3139,-0.3149,-0.3155,-0.3321,-0.3319,-0.3317,0,0,0,0,0,0,-0.2702,-0.2712,-0.279,-0.2757,-0.2768,-0.2794,-0.2811,-0.2815,-0.2824,-0.2923,-0.2939,-0.2833,-0.301,-0.3038,-0.3098,-0.3075,-0.3154,-0.3163,-0.3324,-0.3321,-0.3318,-0.3145,0,0,0,0,0,0,-0.2699,-0.271,-0.2718,-0.2757,-0.277,-0.2805,-0.2813,-0.2817,-0.2833,-0.2832,-0.2934,-0.2954,-0.3011,-0.3081,-0.3109,-0.3091,-0.3172,-0.3326,-0.3322,-0.3319,-0.3153,-0.3136,-0.3122,0,0,0,0,0,-0.2695,-0.2705,-0.2718,-0.2728,-0.278,-0.2805,-0.2811,-0.2826,-0.2834,-0.2831,-0.2873,-0.2951,-0.3078,-0.3089,-0.3122,-0.3107,-0.3328,-0.3323,-0.3319,-0.316,-0.3139,-0.3123,0,0,0,0,0,0,-0.2666,-0.2708,-0.2722,-0.2747,-0.2769,-0.2805,-0.2809,-0.2828,-0.2859,-0.2861,-0.2945,-0.2969,-0.3,-0.3085,-0.3094,-0.3141,-0.3211,-0.3213,-0.3079,-0.3061,-0.3046,-0.3056,-0.3181,0,0,0,0,0,-0.2666,-0.2677,-0.272,-0.2735,-0.2748,-0.2781,-0.2795,-0.2807,-0.2842,-0.2853,-0.2913,-0.2974,-0.3012,-0.3059,-0.3112,-0.3173,-0.3203,-0.3177,-0.3162,-0.3148,-0.3175,-0.3146,-0.3129,-0.3303,-0.3303,-0.3303,0,0,-0.2657,-0.2682,-0.2689,-0.2728,-0.2748,-0.2765,-0.2785,-0.2801,-0.2807,-0.2885,-0.2905,-0.293,-0.3011,-0.3029,-0.3056,-0.3102,-0.3107,-0.3143,-0.3131,-0.3167,-0.3139,-0.3122,-0.3107,-0.33,-0.3301,-0.3301,0,0,-0.2643,-0.267,-0.2674,-0.2695,-0.2726,-0.2748,-0.2753,-0.2785,-0.2786,-0.2817,-0.2836,-0.2832,-0.2948,-0.2949,-0.298,-0.293,-0.3013,-0.296,-0.2918,-0.2885,-0.2871,-0.2858,-0.2836,-0.2823,-0.2969,-0.2968,-0.2968,0,-0.2631,-0.2652,-0.2677,-0.269,-0.2708,-0.2739,-0.2752,-0.2762,-0.28,-0.2801,-0.2807,-0.2855,-0.2899,-0.2902,-0.2858,-0.2895,-0.2906,-0.2975,-0.2863,-0.2852,-0.2842,-0.2823,-0.2811,-0.2959,-0.296,-0.2961,-0.2962,0,-0.2623,-0.2643,-0.2646,-0.2673,-0.2691,-0.2704,-0.2731,-0.2735,-0.2745,-0.2752,-0.2741,-0.2755,-0.2789,-0.2774,-0.2811,-0.2764,-0.2799,-0.2826,-0.2903,-0.2814,-0.2799,-0.279,-0.2947,-0.295,-0.2953,-0.2955,0,0,-0.2585,-0.2632,-0.2632,-0.2649,-0.2686,-0.2701,-0.2707,-0.2719,-0.2722,-0.2712,-0.2706,-0.2685,-0.2681,-0.2714,-0.2724,-0.2691,-0.2587,-0.2736,-0.2738,-0.2704,-0.2528,-0.2402,-0.2381,-0.2597,-0.2595,-0.2594,-0.253,0,-0.257,-0.2593,-0.262,-0.2639,-0.2657,-0.2687,-0.2693,-0.2703,-0.2709,-0.2706,-0.2677,-0.2678,-0.2666,-0.2667,-0.2619,-0.2623,-0.2564,-0.2604,-0.2633,-0.2634,-0.2523,-0.2365,-0.228,-0.2203,-0.2521,-0.252,-0.2519,0,-0.2547,-0.2573,-0.2592,-0.2635,-0.2644,-0.2655,-0.2676,-0.2686,-0.2685,-0.2688,-0.2666,-0.2671,-0.2623,-0.2618,-0.2546,-0.2582,-0.254,-0.2519,-0.2516,-0.2467,-0.249,-0.2354,-0.2175,-0.2155,-0.2506,-0.2507,-0.2508,0,-0.2506,-0.2548,-0.2565,-0.258,-0.263,-0.2635,-0.2655,-0.2669,-0.2673,-0.2678,-0.2683,-0.2643,-0.263,-0.2572,-0.2515,-0.2542,-0.2432,-0.2466,-0.2302,-0.2295,-0.2264,-0.2255,-0.2067,-0.2378,-0.2378,-0.2378,-0.2378,0,-0.2479,-0.2488,-0.2546,-0.2557,-0.2565,-0.2612,-0.2614,-0.2632,-0.2652,-0.2653,-0.2666,-0.2654,-0.2618,-0.2561,-0.2507,-0.2358,-0.2414,-0.2263,-0.2249,-0.2195,-0.2181,-0.2203,-0.2251,-0.2375,-0.2376,-0.2376,-0.2377,0,-0.2417,-0.2461,-0.2478,-0.2533,-0.2543,-0.2545,-0.2582,-0.2586,-0.2625,-0.2633,-0.2637,-0.265,-0.2559,-0.2489,-0.2398,-0.2329,-0.2165,-0.2149,-0.2084,-0.206,-0.1871,-0.1913,-0.1781,-0.1727,-0.1959,-0.1955,-0.1952,0,-0.2382,-0.2387,-0.2439,-0.2443,-0.2462,-0.2479,-0.2487,-0.2546,-0.2564,-0.2619,-0.2618,-0.2559,-0.2467,-0.2275,-0.2136,-0.1967,-0.1991,-0.1819,-0.182,-0.1801,-0.1842,-0.1894,-0.1865,-0.1717,-0.1713,-0.1709,-0.1705,0,-0.2303,-0.2323,-0.2338,-0.2353,-0.2367,-0.238,-0.2411,-0.2428,-0.2508,-0.2515,-0.2504,-0.2436,-0.2251,-0.2024,-0.181,-0.1716,-0.1772,-0.1727,-0.1728,-0.1628,-0.1658,-0.162,-0.1845,-0.167,-0.1673,-0.1676,-0.1678,-0.1679,-0.2221,-0.2212,-0.2234,-0.2233,-0.2255,-0.2264,-0.2248,-0.23,-0.2302,-0.2295,-0.2323,-0.2174,-0.1989,-0.1644,-0.1539,-0.1354,-0.1451,-0.1328,-0.1382,-0.1437,-0.1361,-0.1483,-0.1273,-0.1274,-0.1276,-0.1276,-0.1277,0,-0.21,-0.2105,-0.2108,-0.211,-0.2089,-0.2142,-0.2174,-0.214,-0.211,-0.2086,-0.2011,-0.1788,-0.1536,-0.1382,-0.1167,-0.1074,-0.108,-0.1055,-0.1147,-0.1132,-0.1244,-0.1206,-0.0945,-0.0945,-0.0945,-0.0945,-0.0945,-0.0945,-0.2037,-0.1995,-0.2002,-0.193,-0.1937,-0.1884,-0.1883,-0.1842,-0.18,-0.163,-0.1509,-0.1428,-0.1294,-0.1231,-0.1049,-0.0975,-0.0982,-0.0933,-0.0969,-0.1103,-0.1135,-0.1166,-0.1136,-0.0864,-0.0864,-0.082,-0.082,-0.082]},{"header":{"parameterUnit":"m.s-1","parameterCategory":2,"la1":30.2991,"la2":30.254,"lo1":-89.0895,"lo2":-89.0444,"dy":0.0017,"dx":0.0017,"nx":28,"ny":28,"refTime":"2025-04-14T21:00:00:Z","depth":"0","parameterNumber":3,"parameterNumberName":"V-component_of_CURRENTS"},"data":[0,0,0,0,0,0,0,0,0,0,0,0,0,0,0,0,0,0,0,0,0,0,0,0,0,0,0,0,0,0,0,0,0,0,0,0,0,0,0,0,0,0,0,0,0,0,0,0,0,0,0,0,0,0,0,0,0,0,-0.0497,-0.0496,0,-0.0434,-0.0433,-0.0432,-0.0369,-0.0368,-0.0367,-0.0366,-0.0107,-0.0101,-0.0095,0,0,0,0,0,0,0,0,0,0,0,0,0,-0.0521,-0.0522,-0.0497,-0.0496,-0.0495,-0.0434,-0.0433,-0.0432,-0.0369,-0.0368,-0.0367,-0.0366,-0.0109,-0.0102,-0.0095,0,0,0,0,0,0,0,0,0,0,0,0,0,-0.0491,-0.0522,-0.0497,-0.0455,-0.0451,-0.0434,-0.0433,-0.0432,-0.0369,-0.0368,-0.0366,-0.0365,-0.0112,-0.0103,-0.0094,-0.0068,0,0,-0.0066,-0.0063,0,0,0,0,0,0,0,0,-0.0493,-0.0491,-0.0462,-0.0458,-0.0453,-0.0406,-0.0347,-0.03,-0.037,-0.0402,-0.0366,-0.0364,-0.0189,-0.0174,-0.017,-0.0055,-0.0044,-0.0066,-0.006,-0.0056,-0.0054,0,0,0,0,0,0,0,-0.0495,-0.0493,-0.0473,-0.0461,-0.0456,-0.0425,-0.042,-0.0338,-0.0302,-0.0399,-0.0394,-0.0385,-0.0185,-0.0179,-0.0163,-0.0041,-0.0066,-0.0058,-0.0052,-0.0049,0.0126,0.0125,0,0,0,0,0,0,-0.0504,-0.0495,-0.0475,-0.0471,-0.0468,-0.0426,-0.042,-0.0424,-0.0307,-0.0289,-0.0386,-0.0382,-0.0195,-0.0173,-0.0153,-0.0115,-0.0056,-0.0048,-0.0043,0.0126,0.0125,0.0125,0,0,0,0,0,0,-0.0505,-0.0504,-0.0477,-0.0479,-0.0474,-0.0427,-0.0432,-0.0423,-0.0411,-0.0299,-0.0277,-0.0382,-0.0193,-0.0166,-0.0106,-0.0103,-0.0044,-0.0036,0.0127,0.0126,0.0125,-0.0036,0,0,0,0,0,0,-0.0507,-0.0505,-0.0511,-0.0481,-0.0474,-0.0473,-0.0433,-0.0423,-0.0408,-0.0402,-0.0288,-0.0264,-0.019,-0.012,-0.0097,-0.009,-0.0029,0.0128,0.0127,0.0125,-0.003,-0.0043,-0.0054,0,0,0,0,0,-0.0508,-0.0523,-0.0512,-0.0509,-0.0484,-0.0473,-0.0468,-0.043,-0.0409,-0.0413,-0.0352,-0.0267,-0.0111,-0.0115,-0.0087,-0.0077,0.0129,0.0127,0.0126,-0.0025,-0.0041,-0.0054,0,0,0,0,0,0,-0.0533,-0.0517,-0.0504,-0.0512,-0.0496,-0.0462,-0.0459,-0.0438,-0.0397,-0.0385,-0.0285,-0.0257,-0.0208,-0.0122,-0.0128,-0.0031,0.0028,0.0031,-0.0096,-0.011,-0.0121,-0.0127,-0.0021,0,0,0,0,0,-0.0545,-0.0553,-0.053,-0.0536,-0.0531,-0.0499,-0.0489,-0.0467,-0.0428,-0.0409,-0.0337,-0.0255,-0.0195,-0.0139,-0.0075,-0.0015,0.0058,0.0012,0.0,-0.001,0.0003,0.0066,0.006,0.0119,0.0119,0.0119,0,0,-0.0554,-0.0547,-0.0549,-0.0542,-0.0526,-0.0533,-0.049,-0.0482,-0.0484,-0.0383,-0.0359,-0.03,-0.0196,-0.0152,-0.0116,-0.0072,0.0011,-0.0012,-0.0023,-0.0002,0.0063,0.0058,0.0052,0.0118,0.0118,0.0118,0,0,-0.0588,-0.0575,-0.0597,-0.0591,-0.0576,-0.0558,-0.056,-0.0533,-0.0514,-0.049,-0.043,-0.0381,-0.0271,-0.0213,-0.0163,-0.0193,-0.0073,-0.0159,-0.0197,-0.0139,-0.0144,-0.0146,-0.0068,-0.0063,-0.0143,-0.0143,-0.0144,0,-0.06,-0.0627,-0.06,-0.0621,-0.0621,-0.0575,-0.06,-0.0579,-0.0537,-0.0518,-0.0494,-0.0378,-0.0301,-0.0242,-0.026,-0.0219,-0.0158,-0.0159,-0.0157,-0.0158,-0.0158,-0.0077,-0.0069,-0.0151,-0.0151,-0.015,-0.0149,0,-0.0653,-0.0672,-0.0684,-0.0697,-0.0694,-0.0706,-0.0677,-0.0664,-0.0634,-0.0602,-0.0553,-0.0475,-0.0395,-0.037,-0.032,-0.028,-0.0229,-0.0203,-0.0128,-0.0174,-0.0085,-0.0074,-0.0163,-0.016,-0.0158,-0.0156,0,0,-0.0687,-0.0718,-0.0721,-0.0743,-0.0737,-0.074,-0.074,-0.0723,-0.0705,-0.0663,-0.0637,-0.0564,-0.0514,-0.0456,-0.0389,-0.0331,-0.0298,-0.0269,-0.0262,-0.0204,-0.015,-0.0068,-0.0047,-0.0276,-0.0275,-0.0274,-0.009,0,-0.0738,-0.0802,-0.0797,-0.0845,-0.0875,-0.0836,-0.0834,-0.0804,-0.0759,-0.072,-0.064,-0.0585,-0.0546,-0.0504,-0.0455,-0.0329,-0.0273,-0.0348,-0.01,-0.0092,-0.0025,-0.0033,-0.0021,0.0147,-0.0079,-0.0077,-0.0075,0,-0.0796,-0.0831,-0.0899,-0.0921,-0.0926,-0.0939,-0.0916,-0.0908,-0.0834,-0.0794,-0.0732,-0.0654,-0.0565,-0.0533,-0.035,-0.0398,-0.0291,-0.0198,-0.0188,-0.0041,0.0011,0.0162,0.0178,0.0281,-0.0057,-0.0058,-0.0059,0,-0.0848,-0.0899,-0.0958,-0.0969,-0.0983,-0.0992,-0.0986,-0.093,-0.0903,-0.0832,-0.0783,-0.0684,-0.0593,-0.048,-0.0277,-0.0315,-0.0056,-0.0083,0.0091,0.0099,0.02,0.0215,0.0339,0.0033,0.0032,0.0032,0.0031,0,-0.0913,-0.0954,-0.0986,-0.1018,-0.1056,-0.1044,-0.1047,-0.102,-0.0956,-0.0901,-0.0822,-0.0722,-0.0573,-0.0398,-0.0271,-0.0023,-0.0045,0.0099,0.0154,0.0144,0.0151,0.0321,0.0358,0.0039,0.0037,0.0036,0.0035,0,-0.0965,-0.0992,-0.1052,-0.1082,-0.1089,-0.1113,-0.1093,-0.1078,-0.1012,-0.0935,-0.0906,-0.0723,-0.0488,-0.031,-0.0064,0.0029,0.0317,0.0317,0.0311,0.036,0.0565,0.0592,0.0831,0.0923,0.0503,0.0506,0.0508,0,-0.0999,-0.1042,-0.1096,-0.1124,-0.1142,-0.1163,-0.1165,-0.1119,-0.1083,-0.0903,-0.0855,-0.061,-0.0404,-0.0014,0.0189,0.0435,0.0507,0.0589,0.0501,0.06,0.067,0.0683,0.0742,0.0571,0.0574,0.0576,0.0578,0,-0.105,-0.1069,-0.1115,-0.1176,-0.1202,-0.1217,-0.1207,-0.118,-0.1084,-0.0962,-0.0728,-0.0541,-0.0172,0.014,0.0446,0.0578,0.0667,0.0645,0.0747,0.0743,0.0769,0.0876,0.0438,0.06,0.0597,0.0596,0.0595,0.0594,-0.1067,-0.1109,-0.1164,-0.1216,-0.1246,-0.1247,-0.1226,-0.1155,-0.1042,-0.0814,-0.0643,-0.0308,0.0054,0.0492,0.065,0.092,0.0881,0.0966,0.0997,0.1006,0.1075,0.0699,0.0916,0.0916,0.0916,0.0915,0.0915,0,-0.1078,-0.1132,-0.1193,-0.1248,-0.1275,-0.1279,-0.1229,-0.1146,-0.0967,-0.0722,-0.0458,0.004,0.0407,0.0719,0.1076,0.1235,0.125,0.1319,0.1311,0.136,0.1032,0.1011,0.126,0.126,0.126,0.126,0.126,0.126,-0.1086,-0.1151,-0.1192,-0.1249,-0.128,-0.1259,-0.1212,-0.1034,-0.0835,-0.0415,-0.0071,0.0217,0.0658,0.1146,0.1479,0.1518,0.1653,0.1656,0.1755,0.1474,0.1441,0.141,0.1399,0.1725,0.1726,0.2056,0.2059,0.2061]}],[{"header":{"parameterUnit":"m.s-1","parameterCategory":2,"la1":30.2991,"la2":30.254,"lo1":-89.0895,"lo2":-89.0444,"dy":0.0017,"dx":0.0017,"nx":28,"ny":28,"refTime":"2025-04-14T21:00:00:Z","depth":"2","parameterNumber":2,"parameterNumberName":"U-component_of_CURRENTS"},"data":[0,0,0,0,0,0,0,0,0,0,0,0,0,0,0,0,0,0,0,0,0,0,0,0,0,0,0,0,0,0,0,0,0,0,0,0,0,0,0,0,0,0,0,0,0,0,0,0,0,0,0,0,0,0,0,0,0,0,-0.2433,-0.2433,0,-0.2498,-0.2499,-0.25,-0.2509,-0.2509,-0.2508,-0.2508,-0.2552,-0.2553,-0.2555,0,0,0,0,0,0,0,0,0,0,0,0,0,-0.2343,-0.2344,-0.2432,-0.2433,-0.2434,-0.2498,-0.2499,-0.25,-0.2509,-0.2509,-0.2508,-0.2508,-0.2551,-0.2553,-0.2555,0,0,0,0,0,0,0,0,0,0,0,0,0,-0.2391,-0.2344,-0.2432,-0.2448,-0.245,-0.2498,-0.2499,-0.25,-0.251,-0.2509,-0.2508,-0.2507,-0.255,-0.2553,-0.2555,-0.2584,0,0,-0.2562,-0.2563,0,0,0,0,0,0,0,0,-0.2388,-0.2394,-0.2445,-0.2447,-0.245,-0.2496,-0.2483,-0.2527,-0.251,-0.2485,-0.2508,-0.2507,-0.2532,-0.2536,-0.2548,-0.2586,-0.2588,-0.2563,-0.2564,-0.2565,-0.2566,0,0,0,0,0,0,0,-0.2385,-0.2391,-0.2457,-0.2446,-0.2449,-0.2461,-0.2467,-0.2492,-0.2511,-0.2488,-0.2489,-0.2499,-0.2533,-0.2546,-0.255,-0.2588,-0.2563,-0.2565,-0.2566,-0.2567,-0.2599,-0.2598,0,0,0,0,0,0,-0.2379,-0.2388,-0.2455,-0.2459,-0.2418,-0.2463,-0.247,-0.2481,-0.2511,-0.2515,-0.2499,-0.2499,-0.2542,-0.2547,-0.2551,-0.2547,-0.2565,-0.2567,-0.2569,-0.2599,-0.2598,-0.2598,0,0,0,0,0,0,-0.2377,-0.2384,-0.2452,-0.2426,-0.2436,-0.2466,-0.2478,-0.2482,-0.2496,-0.252,-0.2524,-0.2509,-0.2542,-0.2548,-0.2566,-0.255,-0.2568,-0.2571,-0.26,-0.2599,-0.2598,-0.2564,0,0,0,0,0,0,-0.2374,-0.2383,-0.239,-0.2426,-0.2437,-0.247,-0.2479,-0.2484,-0.2504,-0.2504,-0.253,-0.2533,-0.2542,-0.2563,-0.2569,-0.2553,-0.2572,-0.2601,-0.2599,-0.2598,-0.2566,-0.2562,-0.2558,0,0,0,0,0,-0.2371,-0.2378,-0.239,-0.2398,-0.2445,-0.247,-0.2476,-0.2494,-0.2505,-0.2506,-0.2524,-0.2532,-0.2559,-0.2565,-0.2572,-0.2557,-0.2601,-0.26,-0.2598,-0.2567,-0.2563,-0.2559,0,0,0,0,0,0,-0.2346,-0.2381,-0.2394,-0.2414,-0.2436,-0.2472,-0.2478,-0.2498,-0.2516,-0.2517,-0.2539,-0.2543,-0.2547,-0.2562,-0.2568,-0.256,-0.2576,-0.2576,-0.255,-0.2546,-0.2542,-0.2532,-0.2574,0,0,0,0,0,-0.2345,-0.2353,-0.2392,-0.2405,-0.2417,-0.2451,-0.2465,-0.248,-0.2503,-0.251,-0.2528,-0.2541,-0.2549,-0.2556,-0.2565,-0.2576,-0.2568,-0.2566,-0.2562,-0.2559,-0.2554,-0.2529,-0.2523,-0.2593,-0.2593,-0.2593,0,0,-0.2338,-0.2359,-0.2365,-0.2399,-0.2419,-0.2437,-0.2456,-0.2476,-0.2485,-0.2513,-0.2525,-0.2534,-0.2549,-0.2548,-0.2551,-0.2559,-0.2533,-0.2557,-0.2555,-0.2552,-0.2527,-0.252,-0.2514,-0.2592,-0.2593,-0.2593,0,0,-0.2327,-0.2349,-0.2353,-0.2373,-0.2404,-0.2425,-0.2431,-0.2466,-0.2472,-0.2494,-0.2503,-0.2497,-0.2531,-0.2519,-0.2523,-0.2508,-0.2515,-0.2517,-0.2493,-0.2469,-0.2463,-0.2458,-0.243,-0.2423,-0.2515,-0.2515,-0.2515,0,-0.2319,-0.2335,-0.2357,-0.237,-0.2387,-0.2419,-0.2432,-0.2446,-0.2479,-0.2482,-0.2489,-0.2504,-0.2508,-0.2498,-0.2485,-0.2497,-0.2493,-0.2509,-0.2464,-0.2458,-0.2453,-0.2427,-0.2419,-0.2513,-0.2514,-0.2514,-0.2514,0,-0.2313,-0.233,-0.2333,-0.2359,-0.2377,-0.2391,-0.2419,-0.243,-0.2447,-0.246,-0.2456,-0.2458,-0.2464,-0.2457,-0.247,-0.2437,-0.2447,-0.2461,-0.2473,-0.2444,-0.2418,-0.241,-0.2511,-0.2511,-0.2512,-0.2512,0,0,-0.2282,-0.2322,-0.2323,-0.2337,-0.2374,-0.2389,-0.2401,-0.2419,-0.243,-0.2433,-0.2437,-0.2419,-0.2421,-0.2423,-0.2427,-0.24,-0.235,-0.2418,-0.2418,-0.2389,-0.2299,-0.2197,-0.2179,-0.2365,-0.2364,-0.2363,-0.2292,0,-0.2271,-0.229,-0.2314,-0.2333,-0.2348,-0.2379,-0.2391,-0.2409,-0.2424,-0.2434,-0.2415,-0.242,-0.2409,-0.2414,-0.2381,-0.2375,-0.233,-0.2367,-0.2335,-0.2333,-0.2244,-0.2167,-0.2027,-0.1943,-0.2285,-0.2284,-0.2283,0,-0.2253,-0.2272,-0.2289,-0.2327,-0.2336,-0.2351,-0.2379,-0.2395,-0.2411,-0.2422,-0.2414,-0.2421,-0.2386,-0.2383,-0.2319,-0.2352,-0.2313,-0.2292,-0.229,-0.22,-0.2216,-0.2029,-0.1916,-0.227,-0.2271,-0.2272,-0.2273,0,-0.2213,-0.2251,-0.2262,-0.2276,-0.2324,-0.2333,-0.2357,-0.2384,-0.2395,-0.2415,-0.2424,-0.2401,-0.2386,-0.2344,-0.2291,-0.2315,-0.2216,-0.2248,-0.2106,-0.21,-0.1973,-0.1956,-0.2169,-0.217,-0.217,-0.217,-0.217,0,-0.2187,-0.2195,-0.2246,-0.2253,-0.2266,-0.2312,-0.2324,-0.235,-0.2381,-0.2378,-0.2409,-0.2391,-0.2375,-0.2325,-0.2284,-0.2154,-0.2201,-0.2072,-0.206,-0.1956,-0.1939,-0.2228,-0.2236,-0.2167,-0.2168,-0.2168,-0.2169,0,-0.213,-0.2168,-0.2182,-0.2232,-0.2246,-0.2253,-0.2298,-0.2305,-0.2352,-0.2352,-0.2357,-0.2371,-0.2299,-0.2259,-0.2183,-0.212,-0.2033,-0.197,-0.1843,-0.1815,-0.194,-0.1948,-0.1814,-0.1809,-0.1805,-0.1802,-0.18,0,-0.2099,-0.2101,-0.2147,-0.2151,-0.217,-0.2194,-0.2204,-0.227,-0.2281,-0.2318,-0.2305,-0.2264,-0.2181,-0.2038,-0.1928,-0.1803,-0.1898,-0.1616,-0.1615,-0.1894,-0.1897,-0.191,-0.1922,-0.1442,-0.1436,-0.1432,-0.1428,0,-0.2028,-0.2044,-0.2054,-0.2066,-0.2079,-0.2092,-0.2119,-0.2123,-0.2186,-0.2178,-0.214,-0.2081,-0.1951,-0.1744,-0.16,-0.1525,-0.1632,-0.152,-0.1825,-0.1551,-0.1536,-0.1543,-0.1567,-0.1389,-0.1393,-0.1396,-0.1398,-0.14,-0.1955,-0.1943,-0.1954,-0.195,-0.197,-0.1959,-0.1911,-0.1942,-0.1916,-0.1852,-0.191,-0.1752,-0.1711,-0.1384,-0.1279,-0.1202,-0.1321,-0.1276,-0.1292,-0.1313,-0.128,-0.1259,-0.1053,-0.1055,-0.1057,-0.1058,-0.106,0,-0.1846,-0.184,-0.1835,-0.1818,-0.178,-0.1836,-0.1819,-0.1729,-0.1627,-0.1606,-0.1518,-0.1293,-0.1135,-0.1102,-0.0906,-0.0857,-0.0885,-0.0834,-0.0885,-0.0923,-0.0957,-0.091,-0.0583,-0.0581,-0.058,-0.0579,0,0,-0.1787,-0.1735,-0.1728,-0.162,-0.1607,-0.1488,-0.1438,-0.1326,-0.1262,-0.1105,-0.1014,-0.1049,-0.1057,-0.0822,-0.0763,-0.0641,-0.0782,-0.0603,-0.0984,-0.1082,-0.1115,-0.1204,-0.1171,0,0,0,0,0]},{"header":{"parameterUnit":"m.s-1","parameterCategory":2,"la1":30.2991,"la2":30.254,"lo1":-89.0895,"lo2":-89.0444,"dy":0.0017,"dx":0.0017,"nx":28,"ny":28,"refTime":"2025-04-14T21:00:00:Z","depth":"2","parameterNumber":3,"parameterNumberName":"V-component_of_CURRENTS"},"data":[0,0,0,0,0,0,0,0,0,0,0,0,0,0,0,0,0,0,0,0,0,0,0,0,0,0,0,0,0,0,0,0,0,0,0,0,0,0,0,0,0,0,0,0,0,0,0,0,0,0,0,0,0,0,0,0,0,0,-0.0506,-0.0505,0,-0.0454,-0.0453,-0.0453,-0.0397,-0.0396,-0.0395,-0.0394,-0.0261,-0.0259,-0.0256,0,0,0,0,0,0,0,0,0,0,0,0,0,-0.0515,-0.0516,-0.0506,-0.0505,-0.0504,-0.0454,-0.0453,-0.0453,-0.0397,-0.0396,-0.0395,-0.0394,-0.0262,-0.0259,-0.0256,0,0,0,0,0,0,0,0,0,0,0,0,0,-0.0493,-0.0516,-0.0506,-0.0469,-0.0465,-0.0454,-0.0453,-0.0453,-0.0397,-0.0396,-0.0394,-0.0393,-0.0263,-0.0259,-0.0255,-0.0258,0,0,-0.0243,-0.0241,0,0,0,0,0,0,0,0,-0.0495,-0.0493,-0.0475,-0.0472,-0.0467,-0.0429,-0.0408,-0.0383,-0.0397,-0.0424,-0.0394,-0.0392,-0.031,-0.0302,-0.0299,-0.0252,-0.0247,-0.0243,-0.024,-0.0239,-0.0237,0,0,0,0,0,0,0,-0.0496,-0.0495,-0.0487,-0.0475,-0.047,-0.0441,-0.0437,-0.0403,-0.0375,-0.0422,-0.0417,-0.041,-0.0307,-0.0303,-0.0295,-0.0245,-0.0243,-0.0239,-0.0237,-0.0235,-0.0161,-0.0161,0,0,0,0,0,0,-0.0504,-0.0497,-0.0488,-0.0485,-0.0476,-0.0442,-0.0438,-0.0444,-0.0377,-0.0366,-0.0411,-0.0408,-0.031,-0.0299,-0.029,-0.0263,-0.0239,-0.0235,-0.0233,-0.016,-0.0161,-0.0161,0,0,0,0,0,0,-0.0505,-0.0505,-0.049,-0.0487,-0.0483,-0.0444,-0.0451,-0.0444,-0.0433,-0.037,-0.0357,-0.0408,-0.0309,-0.0295,-0.0261,-0.0258,-0.0233,-0.0229,-0.016,-0.0161,-0.0161,-0.0227,0,0,0,0,0,0,-0.0506,-0.0506,-0.0512,-0.0489,-0.0484,-0.0488,-0.0452,-0.0444,-0.0431,-0.0425,-0.0363,-0.0349,-0.0307,-0.0267,-0.0257,-0.0252,-0.0226,-0.0159,-0.016,-0.0161,-0.0224,-0.023,-0.0234,0,0,0,0,0,-0.0506,-0.0523,-0.0514,-0.0512,-0.0496,-0.0488,-0.0484,-0.0451,-0.0432,-0.0435,-0.0392,-0.0351,-0.0264,-0.0265,-0.0252,-0.0247,-0.0159,-0.016,-0.0161,-0.0222,-0.0229,-0.0234,0,0,0,0,0,0,-0.0529,-0.0518,-0.0507,-0.0519,-0.0506,-0.0478,-0.0476,-0.0458,-0.0429,-0.042,-0.0359,-0.0344,-0.0314,-0.0276,-0.0278,-0.0228,-0.0204,-0.0202,-0.0254,-0.026,-0.0265,-0.0267,-0.0223,0,0,0,0,0,-0.0539,-0.0549,-0.0531,-0.054,-0.0537,-0.051,-0.0502,-0.0483,-0.0454,-0.0441,-0.0399,-0.0351,-0.0311,-0.0283,-0.0248,-0.0222,-0.0175,-0.0209,-0.0214,-0.0219,-0.0213,-0.0151,-0.015,-0.0164,-0.0164,-0.0164,0,0,-0.0549,-0.0544,-0.0548,-0.0545,-0.0532,-0.0536,-0.0502,-0.0497,-0.0493,-0.043,-0.0412,-0.0372,-0.0311,-0.0283,-0.0265,-0.0247,-0.0193,-0.022,-0.0224,-0.0216,-0.0152,-0.0151,-0.0149,-0.0165,-0.0165,-0.0165,0,0,-0.0576,-0.0572,-0.0589,-0.0584,-0.0572,-0.0557,-0.0559,-0.0537,-0.0519,-0.0504,-0.0454,-0.0412,-0.0362,-0.0312,-0.0279,-0.0292,-0.0229,-0.0283,-0.0299,-0.0241,-0.0239,-0.0236,-0.0184,-0.0177,-0.0277,-0.0277,-0.0277,0,-0.0585,-0.0607,-0.0592,-0.0606,-0.0603,-0.0571,-0.0585,-0.0567,-0.0536,-0.0517,-0.0505,-0.042,-0.0372,-0.0315,-0.0319,-0.0301,-0.0262,-0.0282,-0.0247,-0.0243,-0.024,-0.0187,-0.0177,-0.0281,-0.028,-0.028,-0.028,0,-0.0624,-0.0639,-0.0649,-0.0656,-0.0652,-0.0661,-0.0635,-0.0626,-0.0602,-0.0573,-0.0527,-0.0467,-0.0409,-0.039,-0.0356,-0.0306,-0.0286,-0.0268,-0.0232,-0.0242,-0.0186,-0.0175,-0.0285,-0.0284,-0.0283,-0.0282,0,0,-0.065,-0.0673,-0.0675,-0.0689,-0.068,-0.0684,-0.0676,-0.0654,-0.0638,-0.0601,-0.0571,-0.0504,-0.0465,-0.0426,-0.0374,-0.0319,-0.0265,-0.0287,-0.0283,-0.0237,-0.0138,-0.012,-0.0106,-0.0242,-0.0241,-0.024,-0.0112,0,-0.0683,-0.0728,-0.0723,-0.0753,-0.0773,-0.0742,-0.0736,-0.0708,-0.0672,-0.0636,-0.056,-0.0516,-0.0479,-0.045,-0.0391,-0.0295,-0.0238,-0.0301,-0.0133,-0.0128,-0.0111,-0.0093,-0.0113,-0.0,-0.0101,-0.01,-0.0098,0,-0.0722,-0.0747,-0.0792,-0.0806,-0.0809,-0.0817,-0.0795,-0.0784,-0.0717,-0.0686,-0.0623,-0.0562,-0.0473,-0.0448,-0.0285,-0.0329,-0.0241,-0.0168,-0.0161,-0.011,-0.0089,-0.0003,0.0024,-0.0079,-0.0081,-0.0082,-0.0083,0,-0.0757,-0.0792,-0.0831,-0.0838,-0.0848,-0.0853,-0.0848,-0.0799,-0.0782,-0.0713,-0.0684,-0.0577,-0.0513,-0.0397,-0.0249,-0.0265,-0.0068,-0.0068,0.0033,0.0035,0.0071,0.0074,0.0047,0.0047,0.0046,0.0046,0.0046,0,-0.08,-0.0829,-0.0854,-0.0878,-0.0911,-0.0896,-0.0904,-0.0879,-0.0829,-0.0799,-0.0713,-0.0655,-0.0496,-0.0366,-0.0248,-0.0067,-0.0062,0.0041,0.0075,0.0046,0.0044,0.0017,0.0011,0.0051,0.005,0.0049,0.0048,0,-0.0839,-0.0856,-0.0904,-0.0927,-0.0936,-0.0959,-0.0957,-0.0953,-0.0899,-0.0856,-0.0835,-0.0695,-0.0524,-0.0359,-0.0148,-0.0056,0.0105,0.0166,0.0117,0.0142,0.0165,0.0155,0.0287,0.0289,0.0291,0.0292,0.0293,0,-0.0863,-0.0896,-0.0947,-0.0977,-0.0994,-0.102,-0.1034,-0.0999,-0.0983,-0.0873,-0.0849,-0.0678,-0.0548,-0.024,-0.0041,0.0177,0.0174,0.0278,0.0244,0.0173,0.0193,0.018,0.0168,0.0266,0.0267,0.0268,0.0268,0,-0.0906,-0.0926,-0.0966,-0.1034,-0.1069,-0.1098,-0.1107,-0.1103,-0.104,-0.0976,-0.0854,-0.074,-0.0449,-0.0203,0.0071,0.0192,0.0235,0.0297,0.0266,0.0196,0.0161,0.0177,0.0165,0.0274,0.0273,0.0273,0.0273,0.0272,-0.0928,-0.0971,-0.1026,-0.1086,-0.1129,-0.1159,-0.1164,-0.1141,-0.1097,-0.0968,-0.0864,-0.0642,-0.044,-0.0025,0.0152,0.0328,0.031,0.0353,0.0349,0.0344,0.0307,0.0275,0.0403,0.0403,0.0403,0.0403,0.0403,0,-0.0953,-0.1005,-0.107,-0.1137,-0.1183,-0.1193,-0.1196,-0.1158,-0.1087,-0.0937,-0.0791,-0.0501,-0.024,-0.0006,0.0268,0.0399,0.0382,0.0429,0.0374,0.0368,0.0362,0.0323,0.0425,0.0426,0.0426,0.0427,0,0,-0.0969,-0.1039,-0.1077,-0.1161,-0.1203,-0.1224,-0.1216,-0.1132,-0.1009,-0.0829,-0.064,-0.0456,-0.0193,0.0004,0.0164,0.0312,0.0307,0.0329,0.0295,0.0203,0.0196,0.0301,0.0232,0,0,0,0,0]}],[{"header":{"parameterUnit":"m.s-1","parameterCategory":2,"la1":30.2991,"la2":30.254,"lo1":-89.0895,"lo2":-89.0444,"dy":0.0017,"dx":0.0017,"nx":28,"ny":28,"refTime":"2025-04-14T21:00:00:Z","depth":"4","parameterNumber":2,"parameterNumberName":"U-component_of_CURRENTS"},"data":[0,0,0,0,0,0,0,0,0,0,0,0,0,0,0,0,0,0,0,0,0,0,0,0,0,0,0,0,0,0,0,0,0,0,0,0,0,0,0,0,0,0,0,0,0,0,0,0,0,0,0,0,0,0,0,0,0,0,-0.1714,-0.1715,0,-0.1804,-0.1805,-0.1806,-0.1868,-0.1869,-0.1869,-0.1869,-0.1918,-0.1919,-0.1919,0,0,0,0,0,0,0,0,0,0,0,0,0,-0.162,-0.1621,-0.1714,-0.1715,-0.1717,-0.1804,-0.1805,-0.1806,-0.1868,-0.1869,-0.1869,-0.187,-0.1917,-0.1918,-0.1919,0,0,0,0,0,0,0,0,0,0,0,0,0,-0.168,-0.1622,-0.1714,-0.1758,-0.1763,-0.1804,-0.1805,-0.1807,-0.1868,-0.1869,-0.1869,-0.187,-0.1917,-0.1918,-0.192,-0.1912,0,0,-0.1923,-0.1924,0,0,0,0,0,0,0,0,-0.1677,-0.1683,-0.175,-0.1755,-0.1761,-0.1826,-0.179,-0.184,-0.1868,-0.1828,-0.1869,-0.187,-0.1883,-0.1887,-0.1902,-0.1915,-0.1917,-0.1923,-0.1924,-0.1925,-0.1925,0,0,0,0,0,0,0,-0.1672,-0.168,-0.1749,-0.1752,-0.1758,-0.1782,-0.1791,-0.18,-0.1849,-0.1831,-0.1836,-0.1846,-0.1885,-0.1901,-0.1904,-0.1917,-0.1923,-0.1925,-0.1925,-0.1926,-0.1961,-0.1961,0,0,0,0,0,0,-0.166,-0.1676,-0.1747,-0.1752,-0.172,-0.1783,-0.1793,-0.1804,-0.185,-0.1858,-0.1846,-0.1849,-0.1899,-0.1902,-0.1906,-0.1948,-0.1925,-0.1926,-0.1927,-0.196,-0.1961,-0.1961,0,0,0,0,0,0,-0.1658,-0.1665,-0.1743,-0.1716,-0.1728,-0.1783,-0.1795,-0.1805,-0.1851,-0.1861,-0.1869,-0.1884,-0.1899,-0.1904,-0.1942,-0.1948,-0.1926,-0.1928,-0.196,-0.196,-0.1961,-0.2001,0,0,0,0,0,0,-0.1655,-0.1664,-0.1684,-0.1715,-0.1729,-0.1777,-0.1795,-0.1807,-0.1854,-0.1861,-0.1896,-0.19,-0.19,-0.194,-0.1943,-0.195,-0.1929,-0.196,-0.196,-0.1961,-0.2,-0.2003,-0.2006,0,0,0,0,0,-0.1651,-0.1666,-0.1684,-0.1693,-0.1749,-0.1777,-0.1786,-0.1828,-0.1856,-0.1873,-0.1907,-0.1901,-0.1943,-0.1942,-0.1946,-0.1952,-0.196,-0.196,-0.1961,-0.1998,-0.2002,-0.2006,0,0,0,0,0,0,-0.164,-0.1675,-0.1695,-0.1723,-0.1753,-0.1788,-0.1814,-0.1844,-0.1887,-0.1903,-0.1917,-0.1923,-0.1954,-0.1948,-0.1946,-0.196,-0.1944,-0.1946,-0.1972,-0.1976,-0.1979,-0.196,-0.193,0,0,0,0,0,-0.1645,-0.1665,-0.1699,-0.1724,-0.1741,-0.1785,-0.181,-0.1837,-0.1872,-0.1895,-0.1921,-0.194,-0.1952,-0.1963,-0.1971,-0.1989,-0.1965,-0.1989,-0.1992,-0.1995,-0.198,-0.1967,-0.1967,-0.1962,-0.1962,-0.1962,0,0,-0.1649,-0.1671,-0.1685,-0.1724,-0.1754,-0.178,-0.1803,-0.1844,-0.187,-0.189,-0.1942,-0.1958,-0.196,-0.198,-0.199,-0.1981,-0.1983,-0.1995,-0.1998,-0.1981,-0.1967,-0.1968,-0.1968,-0.1962,-0.1962,-0.1962,0,0,-0.1654,-0.1687,-0.1703,-0.1728,-0.1773,-0.1795,-0.1812,-0.1861,-0.189,-0.1936,-0.1952,-0.1974,-0.2006,-0.2001,-0.2002,-0.2023,-0.2002,-0.2029,-0.203,-0.2018,-0.2018,-0.2018,-0.1987,-0.1983,-0.2028,-0.2028,-0.2028,0,-0.1662,-0.1684,-0.1713,-0.1734,-0.1759,-0.1804,-0.1828,-0.1858,-0.1916,-0.1934,-0.1956,-0.1999,-0.2006,-0.2013,-0.2021,-0.2028,-0.2017,-0.2022,-0.2022,-0.2022,-0.2021,-0.1988,-0.1984,-0.203,-0.203,-0.203,-0.2029,0,-0.1668,-0.17,-0.1712,-0.1751,-0.178,-0.1808,-0.1847,-0.1884,-0.1929,-0.1954,-0.199,-0.2008,-0.2026,-0.2032,-0.2038,-0.2034,-0.2027,-0.2033,-0.2015,-0.2024,-0.1989,-0.1984,-0.2033,-0.2032,-0.2032,-0.2031,0,0,-0.1648,-0.1706,-0.1714,-0.1738,-0.1793,-0.1814,-0.1855,-0.1893,-0.1925,-0.1969,-0.1999,-0.2017,-0.2032,-0.2032,-0.204,-0.2031,-0.2019,-0.2034,-0.2033,-0.2004,-0.1986,-0.1857,-0.1839,-0.2039,-0.2039,-0.2038,-0.1963,0,-0.1648,-0.1685,-0.1717,-0.176,-0.1782,-0.1832,-0.1864,-0.1905,-0.1947,-0.1986,-0.1997,-0.203,-0.203,-0.2051,-0.204,-0.2034,-0.2009,-0.2038,-0.1978,-0.1975,-0.1862,-0.183,-0.2036,-0.1959,-0.1958,-0.1957,-0.1956,0,-0.1637,-0.1666,-0.1707,-0.1765,-0.1781,-0.1817,-0.1876,-0.1912,-0.1961,-0.1994,-0.2019,-0.204,-0.2037,-0.2043,-0.2005,-0.2032,-0.2002,-0.1986,-0.1984,-0.1841,-0.1837,-0.1947,-0.1947,-0.1947,-0.1948,-0.1949,-0.1949,0,-0.1593,-0.1656,-0.169,-0.1711,-0.1783,-0.1816,-0.1859,-0.1916,-0.1944,-0.2002,-0.2024,-0.2035,-0.2039,-0.2018,-0.1981,-0.2005,-0.1928,-0.1955,-0.1799,-0.179,-0.1915,-0.1915,-0.1903,-0.1904,-0.1904,-0.1904,-0.1904,0,-0.1561,-0.1592,-0.1679,-0.1696,-0.174,-0.1802,-0.185,-0.1895,-0.1954,-0.1959,-0.2024,-0.201,-0.2036,-0.2,-0.1974,-0.185,-0.1913,-0.1771,-0.1752,-0.1933,-0.1937,-0.1911,-0.1912,-0.1901,-0.1902,-0.1902,-0.1903,0,-0.1497,-0.1558,-0.1601,-0.1688,-0.172,-0.1752,-0.1839,-0.1859,-0.1933,-0.1941,-0.1958,-0.1987,-0.1928,-0.1922,-0.1872,-0.1808,-0.1732,-0.1671,-0.184,-0.1838,-0.1607,-0.1612,-0.1489,-0.1484,-0.1479,-0.1475,-0.1472,0,-0.1462,-0.148,-0.1581,-0.1605,-0.165,-0.1712,-0.1741,-0.1834,-0.1845,-0.189,-0.1867,-0.1852,-0.1845,-0.1653,-0.1683,-0.1599,-0.1582,-0.1539,-0.1584,-0.1565,-0.1561,-0.1573,-0.1584,-0.1465,-0.1464,-0.1462,-0.1461,0,-0.1386,-0.1438,-0.1471,-0.1522,-0.1566,-0.1602,-0.1652,-0.1644,-0.1714,-0.1806,-0.1706,-0.1658,-0.158,-0.1533,-0.1471,-0.1424,-0.1575,-0.1492,-0.1502,-0.1544,-0.1534,-0.1537,-0.1553,-0.1445,-0.1448,-0.1449,-0.145,0,-0.1327,-0.1331,-0.1379,-0.1406,-0.1462,-0.145,-0.1499,-0.1483,-0.1503,-0.156,-0.1514,-0.1498,-0.1535,-0.1437,-0.1384,-0.1323,-0.1312,-0.1283,-0.1304,-0.1322,-0.1305,-0.1271,-0.1056,0,0,0,0,0,-0.1254,-0.1236,-0.1254,-0.1265,-0.1314,-0.1337,-0.141,-0.1457,-0.1527,-0.1407,-0.1455,-0.1371,-0.1278,-0.1287,-0.1186,-0.1324,-0.1331,-0.1204,-0.1313,-0.1358,-0.1376,-0.1374,0,0,0,0,0,0,-0.1202,-0.1214,-0.1205,-0.1135,-0.1113,-0.1139,-0.1175,-0.1227,-0.1176,-0.1255,-0.1207,-0.128,-0.1213,-0.129,-0.1147,-0.1151,-0.1191,-0.1219,-0.1215,-0.1348,-0.1364,-0.1379,-0.1383,0,0,0,0,0]},{"header":{"parameterUnit":"m.s-1","parameterCategory":2,"la1":30.2991,"la2":30.254,"lo1":-89.0895,"lo2":-89.0444,"dy":0.0017,"dx":0.0017,"nx":28,"ny":28,"refTime":"2025-04-14T21:00:00:Z","depth":"4","parameterNumber":3,"parameterNumberName":"V-component_of_CURRENTS"},"data":[0,0,0,0,0,0,0,0,0,0,0,0,0,0,0,0,0,0,0,0,0,0,0,0,0,0,0,0,0,0,0,0,0,0,0,0,0,0,0,0,0,0,0,0,0,0,0,0,0,0,0,0,0,0,0,0,0,0,-0.0394,-0.0394,0,-0.037,-0.037,-0.037,-0.034,-0.034,-0.0339,-0.0339,-0.0275,-0.0274,-0.0273,0,0,0,0,0,0,0,0,0,0,0,0,0,-0.0381,-0.0382,-0.0394,-0.0394,-0.0393,-0.037,-0.037,-0.037,-0.0341,-0.034,-0.0339,-0.0339,-0.0275,-0.0274,-0.0273,0,0,0,0,0,0,0,0,0,0,0,0,0,-0.0376,-0.0382,-0.0394,-0.0375,-0.0373,-0.037,-0.037,-0.037,-0.0341,-0.034,-0.0339,-0.0338,-0.0276,-0.0274,-0.0272,-0.0278,0,0,-0.0267,-0.0266,0,0,0,0,0,0,0,0,-0.0376,-0.0377,-0.0379,-0.0377,-0.0374,-0.0357,-0.0342,-0.0336,-0.0341,-0.0354,-0.0339,-0.0338,-0.0299,-0.0295,-0.0294,-0.0275,-0.0272,-0.0267,-0.0266,-0.0265,-0.0264,0,0,0,0,0,0,0,-0.0377,-0.0377,-0.0386,-0.0378,-0.0376,-0.0356,-0.0355,-0.0341,-0.0331,-0.0353,-0.035,-0.0347,-0.0297,-0.0296,-0.0292,-0.0271,-0.0267,-0.0265,-0.0264,-0.0263,-0.0241,-0.0241,0,0,0,0,0,0,-0.0381,-0.0378,-0.0386,-0.0385,-0.0372,-0.0358,-0.0356,-0.0364,-0.0332,-0.0327,-0.0347,-0.0345,-0.0299,-0.0294,-0.029,-0.0278,-0.0265,-0.0263,-0.0262,-0.024,-0.0241,-0.0241,0,0,0,0,0,0,-0.0381,-0.0382,-0.0387,-0.0379,-0.0378,-0.0359,-0.0368,-0.0364,-0.0363,-0.0328,-0.0322,-0.035,-0.0299,-0.0292,-0.0279,-0.0275,-0.0262,-0.0261,-0.024,-0.024,-0.0241,-0.0263,0,0,0,0,0,0,-0.0381,-0.0383,-0.0393,-0.038,-0.0379,-0.0391,-0.0368,-0.0364,-0.0362,-0.0359,-0.0329,-0.0322,-0.0297,-0.0282,-0.0278,-0.0273,-0.0259,-0.0239,-0.024,-0.0241,-0.0262,-0.0265,-0.0267,0,0,0,0,0,-0.0381,-0.0397,-0.0394,-0.0394,-0.0393,-0.0392,-0.039,-0.0373,-0.0363,-0.0369,-0.0346,-0.0323,-0.0284,-0.0281,-0.0276,-0.027,-0.0239,-0.024,-0.0241,-0.0261,-0.0264,-0.0267,0,0,0,0,0,0,-0.0396,-0.0395,-0.0391,-0.0406,-0.0402,-0.0387,-0.0391,-0.038,-0.0369,-0.0365,-0.0331,-0.0323,-0.031,-0.0293,-0.0291,-0.0268,-0.0257,-0.0257,-0.0275,-0.0277,-0.028,-0.0271,-0.0258,0,0,0,0,0,-0.0406,-0.0419,-0.0411,-0.0424,-0.0424,-0.041,-0.0408,-0.0399,-0.0385,-0.038,-0.0359,-0.0335,-0.0311,-0.0297,-0.0281,-0.027,-0.0238,-0.0264,-0.0266,-0.0268,-0.0259,-0.0202,-0.0198,-0.0245,-0.0245,-0.0245,0,0,-0.0415,-0.0416,-0.0423,-0.0428,-0.0424,-0.0427,-0.0408,-0.0412,-0.0408,-0.0375,-0.0368,-0.0347,-0.0313,-0.0298,-0.029,-0.0281,-0.0243,-0.027,-0.0272,-0.026,-0.0203,-0.0198,-0.0193,-0.0246,-0.0245,-0.0245,0,0,-0.0435,-0.0443,-0.0457,-0.0457,-0.0455,-0.0447,-0.045,-0.0442,-0.0432,-0.0429,-0.0396,-0.0368,-0.0353,-0.0311,-0.0289,-0.0297,-0.0262,-0.0303,-0.0301,-0.0247,-0.0242,-0.0237,-0.0209,-0.0202,-0.03,-0.03,-0.03,0,-0.0444,-0.0461,-0.046,-0.047,-0.0469,-0.0457,-0.0465,-0.0457,-0.0445,-0.043,-0.0433,-0.0379,-0.035,-0.03,-0.0302,-0.0298,-0.0276,-0.0291,-0.0248,-0.0242,-0.0237,-0.0209,-0.02,-0.0301,-0.0301,-0.0301,-0.0301,0,-0.0467,-0.0482,-0.0491,-0.0499,-0.05,-0.0509,-0.0495,-0.0494,-0.0485,-0.0466,-0.0433,-0.0395,-0.0355,-0.0344,-0.0324,-0.0272,-0.0274,-0.026,-0.0236,-0.0233,-0.0205,-0.0195,-0.0303,-0.0302,-0.0302,-0.0302,0,0,-0.0481,-0.0503,-0.0507,-0.0517,-0.0516,-0.0522,-0.0516,-0.05,-0.0491,-0.0471,-0.0446,-0.0393,-0.0369,-0.0342,-0.0308,-0.0258,-0.0205,-0.0248,-0.0244,-0.0213,-0.0107,-0.0136,-0.0129,-0.0187,-0.0185,-0.0183,-0.0109,0,-0.0497,-0.0527,-0.0527,-0.055,-0.0563,-0.055,-0.0546,-0.0529,-0.0511,-0.0488,-0.0426,-0.04,-0.0369,-0.0355,-0.0294,-0.0231,-0.0178,-0.0227,-0.012,-0.0117,-0.0136,-0.0117,-0.0177,-0.0102,-0.01,-0.0098,-0.0097,0,-0.0513,-0.0533,-0.0563,-0.058,-0.0583,-0.0594,-0.0585,-0.058,-0.0534,-0.0517,-0.0465,-0.0427,-0.0347,-0.0331,-0.0197,-0.0235,-0.017,-0.0119,-0.0114,-0.0122,-0.0127,-0.0101,-0.0079,-0.008,-0.0082,-0.0083,-0.0084,0,-0.0527,-0.0555,-0.0583,-0.059,-0.0606,-0.0614,-0.0618,-0.059,-0.0587,-0.0536,-0.0529,-0.0429,-0.0393,-0.0287,-0.0189,-0.019,-0.0055,-0.0038,0.0001,-0.0002,0.0013,0.0007,0.0067,0.0067,0.0067,0.0067,0.0067,0,-0.0539,-0.0563,-0.0599,-0.0617,-0.0652,-0.0646,-0.0667,-0.0653,-0.0628,-0.0621,-0.0549,-0.0521,-0.038,-0.0294,-0.0193,-0.0078,-0.0052,0.001,0.0025,-0.0003,-0.0012,0.0019,0.0012,0.007,0.0069,0.0068,0.0068,0,-0.0551,-0.0572,-0.0614,-0.0649,-0.0665,-0.0693,-0.0722,-0.073,-0.0702,-0.0691,-0.0679,-0.0583,-0.0469,-0.0338,-0.0171,-0.0096,0.0024,0.0059,-0.0002,0.0006,0.0043,0.0034,0.0125,0.0125,0.0124,0.0124,0.0124,0,-0.0557,-0.0582,-0.065,-0.0688,-0.0713,-0.0755,-0.0783,-0.0774,-0.0777,-0.0729,-0.072,-0.0619,-0.0542,-0.0329,-0.0194,-0.0005,0.0022,0.0076,0.0091,0.0048,0.0054,0.0045,0.0037,0.0124,0.0124,0.0124,0.0124,0,-0.0572,-0.0606,-0.0646,-0.0729,-0.078,-0.0827,-0.0861,-0.0865,-0.0841,-0.0822,-0.0739,-0.0625,-0.05,-0.033,-0.0197,-0.006,0.0039,0.0075,0.0077,0.0092,0.0048,0.0052,0.0044,0.0123,0.0123,0.0123,0.0123,0,-0.0588,-0.0627,-0.0692,-0.0759,-0.083,-0.0875,-0.089,-0.088,-0.0872,-0.0803,-0.078,-0.0637,-0.0549,-0.036,-0.0236,-0.0109,-0.0063,-0.0016,-0.0008,-0.0006,-0.0068,-0.0145,-0.0106,0,0,0,0,0,-0.0597,-0.0646,-0.0715,-0.079,-0.0861,-0.0895,-0.093,-0.0928,-0.0905,-0.0847,-0.0805,-0.0684,-0.0482,-0.0396,-0.0269,-0.0244,-0.0055,-0.0093,-0.0001,0.012,0.012,0.0066,0,0,0,0,0,0,-0.0607,-0.0677,-0.0714,-0.08,-0.085,-0.0918,-0.0938,-0.0923,-0.0876,-0.0834,-0.0723,-0.0658,-0.0462,-0.0549,-0.0266,-0.0231,-0.0156,0.0003,0.0006,0.0119,0.012,0.012,0.0065,0,0,0,0,0]}]]